Regional Weather Roundup
Issued by NWS Sterling, VA

Home | Current Version | Previous Version | Graphics & Text | Print | Product List | Glossary On
Versions: 1 2 3 4 5 6 7 8 9 10 11 12 13 14 15 16 17 18 19 20 21 22 23 24 25 26 27 28 29 30 31 32 33 34 35 36 37 38 39 40 41 42 43 44 45 46 47 48 49 50
000
ASUS41 KLWX 292010
RWRLWX

REGIONAL WEATHER ROUNDUP
NATIONAL WEATHER SERVICE BALTIMORE MD/WASHINGTON DC
400 PM EDT FRI JUL 29 2016

Note: "FAIR" indicates few or no clouds below 12,000 feet
with no significant weather and/or obstructions to visibility.
 TC=TEMPERATURE CELSIUS

 * =Non NWS site. Station does not report precipitation (e.g. rain,
    snow, etc.), thunder, or fog.

DCZ001-MDZ009-015-VAZ040>042-051-053>054-292100-
WASHINGTON METRO

CITY           SKY/WX    TMP DP  RH WIND       PRES   REMARKS
WASHINGTON NAT FAIR      89  67  47 E3        29.87F HX  92
DULLES         FAIR      88  67  49 VRB6      29.89S HX  91
ANDREWS AFB    MOSUNNY   87  68  52 VRB2      29.87S HX  90
FT BELVOIR     FAIR      88  67  49 CALM      29.87F HX  90
LEESBURG*      FAIR      88  70  55 CALM      29.90S HX  92
MANASSAS*      PTSUNNY   88  66  48 N3        29.89S HX  90
GAITHERSBURG*  MOSUNNY   86  70  58 W7        29.92S HX  90

$$

MDZ006>007-011-014-292100-
BALTIMORE METRO

CITY           SKY/WX    TMP DP  RH WIND       PRES   REMARKS
BWI AIRPORT    PTSUNNY   89  68  49 W6        29.85F HX  93
MD SCIENCE CTR   N/A     88  68  51 MISG      29.85F HX  91
MARTIN STATE   PTSUNNY   88  75  66 SE3       29.87S HX  97
ANNAPOLIS      SUNNY     84  73  69 SE9       29.86S HX  90
FORT MEADE*    MOSUNNY   86  72  62 SW6       29.88F HX  92

$$

MDZ012-015-019>023-292100-
MARYLAND EASTERN SHORE

CITY           SKY/WX    TMP DP  RH WIND       PRES   REMARKS
OCEAN CITY       N/A     80  73  79 MISG      29.86R
SALISBURY      NOT AVBL
BAY BRIDGE AP* SUNNY     86  70  58 CALM      29.86F HX  90
CAMBRIDGE*     SUNNY     82  70  65 NW5       29.87R
EASTON*        MOSUNNY   86  75  70 N7        29.90S HX  95

$$

MDZ017>025-292100-
SOUTHERN MARYLAND

CITY           SKY/WX    TMP DP  RH WIND       PRES   REMARKS
PATUXENT RIVER MOSUNNY   87  69  54 NE6       29.87S HX  91
ST INIGOES     SUNNY     87  69  54 VRB3      29.87S HX  91
LEONARDTOWN*   MOSUNNY   82  68  61 MISG        N/A

$$

MDZ003>005-292100-
NORTH CENTRAL MARYLAND

CITY           SKY/WX    TMP DP  RH WIND       PRES   REMARKS
FREDERICK*     PTSUNNY   86  70  58 SW3       29.90S HX  90
HAGERSTOWN APT SUNNY     89  67  47 MISG      29.89F HX  92

$$

MDZ501>502-292100-
WESTERN MARYLAND

CITY           SKY/WX    TMP DP  RH WIND       PRES   REMARKS
OAKLAND*       SUNNY     73  63  68 W6        30.04S
CUMBERLAND*    MOSUNNY   88  64  45 S5        29.95S

$$

VAZ025>031-292100-
SHENANDOAH VALLEY

CITY           SKY/WX    TMP DP  RH WIND       PRES   REMARKS
WINCHESTER*    PTSUNNY   86  68  54 W6        29.92R
FRONT ROYAL*   MOCLDY    82  70  65 CALM      29.91S
LURAY*         NOT AVBL
NEW MARKET*    FAIR      83  69  62 S5        29.91F
STAUNTON*      CLOUDY    81  67  62 N5        29.97S
WAYNESBORO*    CLOUDY    81  67  61 NW5       29.98R

$$

WVZ021-048>050-054>055-292100-
EASTERN WEST VIRGINIA PANHANDLE

CITY           SKY/WX    TMP DP  RH WIND       PRES   REMARKS
MARTINSBURG    FAIR      87  67  51 CALM      29.89F HX  90
PETERSBURG*    CLOUDY    86  70  58 CALM      29.94S HX  90

$$

VAZ036>039-050-292100-
CENTRAL FOOTHILLS

CITY           SKY/WX    TMP DP  RH WIND       PRES   REMARKS
CHARLOTTESVILL CLOUDY    88  65  46 N5        29.91F HX  90
CULPEPER*      FAIR      88  71  56 W5        29.91S HX  93
ORANGE*          N/A     86  68  54 CALM      29.92F
GORDONSVILLE*  CLOUDY    87  71  58 CALM      29.90S HX  92
WARRENTON*     FAIR      89  62  39 CALM      29.90R HX  90

$$

VAZ055>057-292100-
NORTH AND CENTRAL PIEDMONT

CITY           SKY/WX    TMP DP  RH WIND       PRES   REMARKS
FREDERICKSBRG*   N/A     86  68  55 CALM      29.88S
STAFFORD*      FAIR      87  67  51 W5        29.93S HX  90

$$

NCZ024-NYZ072-PAZ021-071-VAZ022-071-292100-
OTHER REGIONAL OBSERVATIONS

CITY           SKY/WX    TMP DP  RH WIND       PRES   REMARKS
NEW YORK CITY  SUNNY     82  68  62 CALM      29.87S
PHILADELPHIA   PTSUNNY   86  66  51 N8        29.85R
PITTSBURGH     MOSUNNY   83  64  52 S8        29.94F
ROANOKE        FAIR      88  66  48 SW7       29.96F HX  90
RICHMOND       FAIR      86  71  60 NW9       29.89F HX  91
RALEIGH        PTSUNNY   92  69  47 VRB6      29.92F HX  97

$$

ANZ530>537-292100-
MARINE OBSERVATIONS

STATION/POSITION TIME  TEMP    WIND        PRES
                       AIR SEA DIR/SP/G
                 (UTC) (F)     (DEG/KT/KT) (MB)
THOMAS PT LIGHT  2000   83 84  150/  3/  4 1012.6F
BALT KEY BRIDGE  1942   83     100/  5/  7 1011.0F
COVE POINT       1942   82      10/  6/  8 1012.2F
LEWISETTA        1942   83 86  360/  6/  9 1011.4S
SOLOMONS ISLAND  1942   85 85  290/  5/  8   N/A
PINEY POINT      1942          310/  7/  8   N/A

$$




USA.gov is the U.S. government's official web portal to all federal, state and local government web resources and services.